San Angelo, TX

3:29 AM CDT on May 22, 2018 (GMT -0500)
San Angelo Regional-Mathis

Weather History for KSJT - January, 2012

Change the Weather History Date:

Monday, January 23, 2012

  Actual Average Record
Temperature  
Mean Temperature 50 °F 47 °F  
Max Temperature 70 °F 60 °F 86 °F (1972)
Min Temperature 30 °F 34 °F 10 °F (1963)
Degree Days  
Heating Degree Days 15 18  
Month to date heating degree days 363 433  
Since 1 July heating degree days 1247 1400  
Cooling Degree Days 0 0  
Month to date cooling degree days 2 0  
Year to date cooling degree days 2 0  
Moisture  
Dew Point 26 °F    
Average Humidity 45    
Maximum Humidity 69    
Minimum Humidity 20    
Precipitation  
Precipitation 0.00 in 0.04 in 0.75 in (1939)
Month to date precipitation 1.44 0.66  
Year to date precipitation 1.44 0.66  
Snow  
Snow 0.00 in 0.10 in 4.00 in (1926)
Month to date snowfall 2.6 1.0  
Since 1 July snowfall 2.6 1.6  
Snow Depth 0.00 in    
Sea Level Pressure  
Sea Level Pressure 30.03 in    
Wind  
Wind Speed 5 mph (South)    
Max Wind Speed 10 mph    
Max Gust Speed 14 mph    
Visibility 10 miles    
Events      
T = Trace of Precipitation, MM = Missing Value Source: NWS Daily Summary

Daily Weather History Graph

Daily Weather History Graph

Search for Another Location

Airport or City:

Astronomy

Jan. 23, 2012 Rise Set
Actual Time 7:39 AM CST 6:08 PM CST
Civil Twilight 7:13 AM CST 6:34 PM CST
Nautical Twilight 6:43 AM CST 7:03 PM CST
Astronomical Twilight 6:15 AM CST 7:32 PM CST
Moon 7:40 AM CST (1/23) 6:52 PM CST (1/23)
Length of Visible Light 11h 20m
Length of Day
10h 29m
New Moon, 0% of the Moon is Illuminated
Jan 23
New Moon
Jan 30
First Quarter
Feb 7
Full
Feb 14
Last Quarter
Feb 21
New

Hourly Weather History & Observations

Time (CST) Temp. Windchill Dew Point Humidity Pressure Visibility Wind Dir Wind Speed Gust Speed Precip Events Conditions
12:51 AM 41.0 °F 37.1 °F 21.0 °F 45% 29.99 in 10.0 mi South 5.8 mph - N/A   Clear
1:51 AM 41.0 °F 39.0 °F 21.9 °F 47% 30.02 in 10.0 mi South 3.5 mph - N/A   Clear
2:51 AM 37.9 °F 33.5 °F 23.0 °F 55% 30.04 in 10.0 mi South 5.8 mph - N/A   Clear
3:51 AM 41.0 °F 39.0 °F 23.0 °F 49% 30.04 in 10.0 mi NW 3.5 mph - N/A   Clear
4:51 AM 37.0 °F 31.6 °F 21.9 °F 54% 30.07 in 10.0 mi WSW 6.9 mph - N/A   Clear
5:51 AM 35.1 °F 32.2 °F 21.9 °F 59% 30.09 in 10.0 mi West 3.5 mph - N/A   Clear
6:51 AM 33.8 °F - 21.2 °F 60% 30.10 in 10.0 mi Calm Calm - N/A   Clear
7:51 AM 30.0 °F 25.2 °F 21.0 °F 69% 30.13 in 10.0 mi South 4.6 mph - N/A   Clear
8:51 AM 37.9 °F 35.5 °F 25.0 °F 60% 30.13 in 10.0 mi WSW 3.5 mph - N/A   Clear
9:51 AM 46.9 °F - 28.9 °F 50% 30.15 in 10.0 mi Calm Calm - N/A   Clear
10:51 AM 53.1 °F - 30.0 °F 41% 30.14 in 10.0 mi ESE 8.1 mph - N/A   Clear
11:51 AM 59.0 °F - 30.0 °F 33% 30.11 in 10.0 mi SE 10.4 mph - N/A   Clear
12:51 PM 62.1 °F - 30.0 °F 30% 30.06 in 10.0 mi ESE 3.5 mph - N/A   Clear
1:51 PM 64.4 °F - 28.4 °F 26% 30.02 in 10.0 mi SSW 8.1 mph - N/A   Clear
2:51 PM 68.0 °F - 27.0 °F 21% 29.98 in 10.0 mi South 6.9 mph - N/A   Clear
3:51 PM 69.1 °F - 27.0 °F 21% 29.95 in 10.0 mi Calm Calm - N/A   Clear
4:51 PM 69.1 °F - 26.1 °F 20% 29.94 in 10.0 mi SE 10.4 mph - N/A   Clear
5:51 PM 66.0 °F - 27.0 °F 23% 29.94 in 10.0 mi SSE 6.9 mph - N/A   Clear
6:51 PM 57.0 °F - 28.9 °F 34% 29.96 in 10.0 mi ESE 5.8 mph - N/A   Clear
7:51 PM 54.0 °F - 28.9 °F 38% 29.98 in 10.0 mi SSE 8.1 mph - N/A   Clear
8:51 PM 54.0 °F - 28.9 °F 38% 29.98 in 10.0 mi SSE 6.9 mph - N/A   Clear
9:51 PM 51.1 °F - 30.9 °F 46% 29.98 in 10.0 mi SSE 8.1 mph - N/A   Clear
10:51 PM 46.0 °F - 30.9 °F 56% 29.97 in 10.0 mi Calm Calm - N/A   Clear
11:51 PM 44.1 °F - 30.9 °F 60% 29.95 in 10.0 mi Calm Calm - N/A   Clear